RH
24 26 32 37 33 27 25 25 25 25 25 24 23 23 23 23 22 22 20 17 16 16 16 17 17 17 18 18 18 17 15 15 17 16 16 18 21 23 24 26 26 26 24 23 23 23 22 21 20 18 18 19 19 19 19 18 18 18 19 20 20 20 21 21 22 23 23 23 23 22 22 21 21 21 21 23 26 42 80 105 101 100 100 93 84 75
27 32 42 42 33 28 27 26 26 27 27 27 25 24 24 24 23 22 19 17 16 16 17 17 17 17 18 18 17 16 16 16 17 16 16 17 20 24 26 25 27 27 24 23 23 23 22 21 20 19 18 18 18 18 18 18 19 19 19 19 20 20 20 21 21 22 22 22 22 22 22 21 21 22 21 26 30 48 86 105 100 101 99 88 80 78
30 39 49 42 32 31 30 28 28 29 29 28 25 24 25 24 23 21 19 18 16 16 18 17 16 17 17 18 18 17 16 17 18 16 16 18 21 25 25 25 27 27 26 24 23 23 22 22 20 20 19 19 20 20 19 20 20 20 21 20 21 21 21 21 21 22 22 22 23 22 21 22 22 23 23 29 40 62 94 105 104 103 93 82 81 83
34 43 47 38 34 35 32 31 30 29 28 27 25 25 25 24 23 21 19 17 16 17 18 16 16 18 19 20 19 17 16 17 18 17 18 20 23 25 24 25 27 28 27 26 25 24 24 23 23 22 22 22 22 22 22 23 22 22 22 22 22 21 21 22 21 23 23 23 23 22 23 23 23 25 28 32 45 71 97 102 97 95 88 83 85 84
38 43 42 38 39 37 35 33 30 30 29 28 27 26 26 24 22 21 19 16 17 18 18 17 18 19 21 21 18 17 17 17 18 19 21 22 23 25 25 26 28 29 29 27 25 26 25 24 24 24 24 25 25 26 25 25 24 24 23 23 23 22 22 22 23 23 23 24 24 23 25 26 29 37 41 41 44 55 69 72 76 91 100 97 88 78
40 41 40 41 41 37 35 33 31 31 30 30 30 28 26 23 22 22 19 17 17 18 19 18 19 21 22 21 20 20 19 19 21 21 22 24 25 25 27 28 27 27 28 26 25 26 25 25 25 25 26 27 27 27 27 26 25 24 24 24 23 24 24 23 24 24 24 25 25 28 32 34 41 47 50 49 48 50 60 72 86 102 108 104 95 83
40 38 39 41 39 36 35 34 33 32 32 33 31 28 25 23 24 22 18 18 18 19 22 22 22 24 23 22 23 24 23 23 23 24 25 25 26 27 28 27 26 27 27 26 25 25 24 24 24 26 27 28 29 28 27 27 26 24 24 25 26 26 25 24 24 24 25 26 27 34 39 45 54 58 61 62 63 71 85 97 103 105 103 99 94 87
39 38 40 40 38 38 38 37 36 34 35 35 31 27 26 25 25 22 18 19 22 24 27 27 27 26 25 26 26 26 26 25 25 26 26 26 27 28 27 26 26 26 24 24 24 23 24 24 24 26 28 28 28 28 28 27 26 26 26 27 28 27 25 25 26 26 28 29 34 41 48 68 85 86 86 87 88 94 99 103 103 100 96 92 92 92
38 39 41 40 40 42 41 40 38 38 37 33 30 29 28 27 26 23 21 23 27 30 31 30 29 27 26 26 27 28 27 26 26 26 26 27 28 27 27 27 26 25 24 24 24 24 24 24 25 26 26 28 28 28 29 28 28 27 28 29 28 28 27 27 28 30 31 35 42 46 52 80 101 99 99 101 99 100 102 100 94 86 84 89 95 94
41 43 42 42 45 46 43 40 39 39 36 30 30 30 29 28 27 25 25 27 31 32 32 30 28 29 28 26 26 28 27 28 27 26 27 27 26 28 28 26 25 25 23 23 25 26 26 26 27 27 27 27 28 29 29 30 30 30 30 30 29 28 27 29 32 34 36 41 45 46 52 74 92 94 100 104 100 100 102 96 87 85 90 94 92 82
44 45 45 48 50 47 44 41 40 38 34 31 33 33 31 29 28 28 30 32 32 32 31 29 28 29 28 26 27 26 27 29 27 27 27 26 27 28 26 26 27 25 25 27 27 26 28 28 27 27 28 28 28 30 30 31 32 31 31 30 28 27 27 30 33 35 41 42 44 58 77 89 95 98 100 102 102 101 100 96 93 97 100 97 88 78
47 48 50 52 50 47 45 41 39 38 35 34 36 34 32 30 30 32 33 33 32 31 30 27 28 29 27 27 27 26 27 27 26 27 25 25 27 24 25 27 22 22 24 23 24 27 28 31 31 29 28 28 29 29 30 32 32 31 30 29 28 27 30 33 33 39 51 50 52 79 101 102 100 101 100 101 102 101 99 98 99 101 100 100 94 86
53 55 55 55 52 49 47 42 42 42 39 38 37 34 31 31 33 35 34 32 31 30 29 28 28 27 26 27 27 26 26 25 26 25 25 26 24 24 27 22 24 43 44 35 46 53 38 29 30 30 29 28 28 29 30 31 30 28 29 29 28 27 29 32 31 38 49 53 68 95 104 100 102 102 100 101 101 100 99 99 100 100 100 101 99 96
73 72 69 68 65 61 57 51 48 46 42 40 37 33 33 34 37 37 33 31 30 29 28 28 28 26 26 26 26 26 24 24 25 25 27 27 24 27 24 22 51 88 89 81 92 92 69 49 37 31 30 26 26 28 29 29 28 28 29 28 30 30 29 32 33 36 39 41 66 100 106 100 101 100 99 102 102 101 100 99 100 101 100 100 99 100
89 92 90 89 86 82 77 64 53 48 45 42 37 36 39 40 39 36 33 30 28 28 27 27 27 26 26 26 25 25 24 25 25 26 28 26 26 28 23 37 77 102 102 104 106 101 98 86 58 39 34 28 27 28 26 28 29 28 29 29 30 30 30 33 32 35 39 39 55 84 98 99 100 101 102 105 103 101 100 99 99 100 100 99 100 101
101 105 103 101 97 96 91 71 55 52 50 42 39 41 43 42 39 35 32 30 28 27 26 26 26 26 27 26 25 25 24 26 26 27 29 26 29 28 24 55 97 104 100 106 105 102 106 102 76 49 37 30 28 29 28 30 31 29 31 30 28 34 42 43 38 38 44 48 54 68 82 89 91 94 100 104 104 100 99 100 99 99 100 101 101 101
110 109 107 104 100 100 95 75 59 57 54 46 44 48 47 42 38 34 32 29 28 27 25 26 26 27 28 26 26 26 26 27 27 29 29 26 30 28 26 59 100 105 96 101 106 94 89 95 78 45 33 32 30 30 31 31 32 32 30 28 34 49 60 58 48 45 46 48 56 66 77 84 86 91 99 103 104 101 100 102 100 101 102 103 104 104
108 107 106 105 103 103 102 86 67 62 58 51 50 51 48 42 37 34 32 29 28 27 25 26 26 27 29 27 29 29 28 31 30 29 30 27 29 28 25 49 89 105 100 103 97 63 52 73 69 45 44 44 37 38 40 39 38 34 28 42 70 84 85 82 69 62 65 69 77 82 85 91 94 97 101 100 101 102 101 102 101 101 102 102 102 100
105 104 102 102 100 102 104 95 78 69 62 55 53 52 47 42 38 34 32 30 29 28 26 27 28 28 30 30 31 32 32 34 33 32 32 29 29 29 25 34 62 85 86 78 62 38 46 80 85 78 81 75 65 62 57 50 45 36 29 51 94 105 98 103 96 85 91 96 98 100 97 98 100 100 100 100 100 101 101 102 102 101 101 100 96 90
105 104 101 101 100 100 102 95 81 71 65 59 56 53 47 43 38 34 33 31 29 29 29 29 29 30 31 32 32 33 34 35 35 35 33 32 33 31 33 40 50 68 77 69 59 58 77 98 98 96 99 98 96 90 81 72 58 45 31 38 77 97 96 105 106 100 103 101 99 103 101 99 100 100 101 101 97 98 100 97 98 99 96 94 91 85
106 107 102 99 101 102 101 94 81 70 64 61 57 53 48 44 39 35 33 31 30 30 30 31 33 34 35 34 33 34 35 35 36 35 34 36 34 31 50 76 82 88 97 93 89 92 97 99 95 96 99 101 102 99 99 98 88 76 62 50 60 76 83 95 102 101 104 103 100 103 101 99 100 100 101 100 96 99 98 86 80 82 84 83 81 79
104 107 105 101 102 107 107 98 87 76 67 64 60 55 50 45 40 36 34 32 31 30 31 33 35 37 37 36 35 35 36 37 37 36 36 35 33 42 74 103 105 100 102 100 100 103 101 98 98 100 101 100 99 100 101 103 102 99 92 75 64 73 86 97 102 100 100 101 101 101 101 101 102 100 100 100 98 101 101 91 84 84 88 87 76 67
106 105 107 104 101 108 111 102 92 84 74 68 64 59 53 47 43 38 35 35 33 30 30 34 34 35 36 37 38 37 37 39 37 36 37 33 42 70 96 105 103 99 100 99 100 103 100 97 98 100 101 100 100 101 100 101 102 102 97 81 70 83 100 102 101 100 98 100 101 101 100 99 101 101 100 101 100 100 101 100 98 97 96 93 82 70
109 106 105 104 101 105 110 104 95 88 81 74 69 64 58 52 47 41 37 35 34 32 31 33 35 35 35 37 39 37 36 40 38 37 38 33 50 89 102 98 101 100 99 101 101 100 97 95 98 99 100 101 101 101 100 99 101 102 101 93 87 94 104 103 102 100 98 100 100 101 100 99 100 100 99 100 100 101 101 100 101 99 95 94 93 88
108 105 105 103 101 102 107 107 100 95 91 83 76 70 62 57 52 45 40 36 34 35 34 33 36 38 36 35 38 38 36 38 38 38 39 33 50 91 105 98 101 102 101 104 101 97 96 97 100 101 100 100 100 102 101 99 100 102 100 100 100 102 105 106 104 101 100 102 101 101 101 99 100 100 100 101 100 100 102 100 100 100 98 98 100 99
106 104 104 101 100 101 105 109 108 104 98 90 85 79 68 61 56 50 44 37 35 37 37 38 42 41 37 34 38 39 36 38 38 37 40 37 46 82 105 101 100 104 104 105 101 97 99 101 102 101 101 100 100 103 105 100 99 100 99 99 101 102 102 102 101 101 101 101 101 102 100 99 101 100 100 101 100 100 101 100 99 100 100 101 100 99
109 105 103 101 100 101 105 108 110 106 95 86 85 84 74 65 59 55 49 41 38 40 39 42 48 48 41 36 38 39 35 38 39 37 41 39 40 71 101 101 97 102 105 105 104 101 100 101 101 101 100 100 100 104 107 102 98 100 101 100 101 102 102 101 101 101 100 100 101 102 100 100 100 100 100 101 100 100 100 101 101 100 101 99 90 83
111 105 103 103 100 100 104 107 108 107 101 93 88 87 82 72 63 59 56 49 44 43 44 47 51 51 45 38 38 39 38 38 37 38 41 38 45 76 100 101 98 101 102 103 103 101 101 101 101 101 100 101 101 102 102 101 100 101 101 100 101 102 102 102 102 101 100 100 100 100 100 100 100 100 101 101 100 100 100 101 100 99 100 97 90 86
108 106 102 102 101 101 104 104 105 106 105 103 99 95 90 81 70 63 60 56 50 48 51 54 54 52 48 43 40 38 38 37 35 39 40 40 61 93 101 97 101 102 98 100 101 101 104 102 100 100 100 101 102 101 101 101 101 100 101 102 101 100 101 102 101 100 101 100 100 100 99 99 100 101 102 100 99 101 101 102 101 100 101 101 101 100
102 106 101 100 101 103 103 102 102 103 103 104 104 103 100 90 77 68 63 59 54 51 54 59 61 60 54 49 45 39 38 37 35 39 41 43 69 101 104 98 102 102 99 100 101 102 103 102 100 100 101 102 101 100 101 102 101 101 101 101 100 99 101 101 99 99 101 101 101 100 99 99 100 100 101 101 100 100 100 99 97 96 95 91 87 82
95 103 101 100 101 103 102 101 101 101 101 102 103 106 108 102 87 75 68 63 60 59 60 63 67 69 62 54 48 42 40 40 35 36 40 41 57 86 101 102 101 100 101 102 101 101 102 101 100 99 100 102 103 101 101 99 98 102 103 102 101 101 101 100 99 100 101 101 101 101 100 100 100 100 101 101 100 100 98 93 89 86 83 76 70 69
96 103 102 100 101 102 102 101 101 101 100 101 101 102 106 107 99 88 77 69 66 66 66 70 75 75 70 63 56 47 41 39 37 36 41 42 45 64 91 103 100 99 101 100 100 100 99 99 100 100 101 101 100 100 99 95 91 93 99 99 95 94 98 101 99 99 100 100 99 100 101 100 99 100 101 100 100 101 100 97 94 92 91 86 84 87
101 105 102 100 102 102 101 101 101 101 102 102 101 101 103 102 100 99 94 84 76 70 69 77 83 79 71 67 64 61 54 49 45 40 41 44 44 57 87 103 100 99 102 101 101 100 98 99 100 98 97 95 92 90 89 87 81 79 85 87 79 75 85 98 102 101 101 101 100 100 101 101 100 100 101 101 100 100 100 100 99 99 99 98 98 99
100 104 101 100 102 100 99 101 100 100 103 104 101 101 103 100 97 102 106 102 96 88 79 78 82 82 80 76 74 76 75 69 63 55 48 47 45 56 87 105 101 98 102 102 101 101 99 100 101 98 95 93 88 83 80 79 73 67 70 76 73 67 70 84 97 101 101 102 102 102 101 100 101 100 100 101 100 99 100 100 100 100 100 100 100 100
90 101 103 101 100 98 98 100 101 99 99 102 103 103 102 101 100 102 105 105 105 104 96 88 86 89 96 98 93 91 90 86 83 76 66 60 55 58 82 104 103 99 101 101 101 101 100 101 101 99 98 97 94 87 81 77 70 61 58 64 71 73 70 72 82 91 96 99 101 103 103 101 102 102 100 100 100 100 100 100 101 101 100 100 100 100
75 91 103 104 99 97 98 100 102 99 92 90 97 103 104 102 101 101 102 102 102 104 104 102 100 99 103 109 109 104 99 98 99 93 81 72 66 65 83 104 107 103 102 101 100 100 99 101 102 100 100 100 98 92 83 76 69 61 56 58 64 69 72 74 75 77 82 89 95 102 105 104 103 102 101 101 100 100 100 100 100 101 101 101 100 100
67 78 96 105 102 97 98 100 100 98 95 89 85 91 101 104 102 100 99 99 101 104 103 103 105 104 103 107 112 108 102 102 105 101 93 85 78 74 87 105 108 104 101 100 101 101 100 101 101 99 99 101 100 94 87 81 75 67 64 64 61 61 71 81 83 81 81 84 88 95 101 103 104 105 104 102 101 101 101 100 100 101 102 101 100 100
67 68 80 96 102 99 97 100 100 99 99 95 85 80 85 94 100 102 101 100 101 104 103 102 104 105 103 103 107 107 104 103 103 101 96 95 93 89 95 105 105 102 102 102 100 99 101 102 100 97 98 101 101 99 95 90 84 74 67 66 63 62 70 81 85 87 89 88 86 86 89 93 97 101 104 103 103 101 100 100 100 99 100 101 100 101
83 76 74 84 97 100 93 91 95 97 97 98 93 85 80 82 89 98 104 103 101 102 103 101 100 103 106 104 104 106 105 103 103 103 95 87 84 85 94 105 106 101 101 102 99 97 100 102 99 99 98 94 95 100 98 91 87 81 71 66 63 63 68 73 77 79 82 85 84 82 82 82 85 90 96 101 105 105 104 104 103 101 102 102 101 101
93 87 80 82 89 94 89 81 79 85 94 97 93 88 88 87 85 88 96 100 99 101 103 98 93 95 98 94 94 101 106 104 102 100 88 76 78 85 92 101 106 103 101 101 99 99 101 100 98 101 99 88 86 96 94 81 78 78 71 62 58 57 58 60 62 64 67 72 76 77 77 76 77 79 82 88 96 102 107 109 107 107 109 109 107 105
83 83 83 86 88 89 90 84 74 75 86 94 91 84 85 90 91 89 91 93 93 93 95 93 90 87 82 77 78 88 97 103 107 102 84 69 77 93 100 101 105 107 105 102 99 100 101 100 98 101 101 95 93 98 94 80 75 77 73 63 55 53 53 51 48 49 52 57 63 68 69 69 69 70 72 75 81 88 96 103 107 108 110 109 108 106
65 70 77 86 92 95 96 93 86 80 82 87 90 85 80 85 91 91 89 90 92 93 91 88 87 84 79 74 73 77 87 98 107 107 96 82 80 90 98 103 108 112 110 104 102 102 102 102 101 100 100 101 99 99 98 93 90 90 89 81 70 63 60 56 51 48 46 46 49 54 58 61 64 68 73 79 85 90 94 98 102 104 105 104 104 103
50 56 64 74 86 96 102 103 101 98 94 93 95 92 87 88 92 89 83 83 88 92 91 85 83 86 86 80 73 73 84 98 105 106 106 103 97 93 93 97 102 108 110 109 108 108 105 104 103 101 100 101 101 99 99 99 99 99 99 97 93 88 85 81 76 71 64 57 52 49 49 51 55 61 67 76 90 100 102 102 103 104 103 102 101 101
43 46 53 60 70 82 95 105 108 106 106 106 106 103 100 99 100 97 90 85 84 85 84 79 75 76 80 80 75 72 77 89 99 105 108 108 106 102 100 100 100 101 104 107 109 110 109 106 103 100 99 100 100 100 100 100 100 101 101 101 100 100 99 99 98 95 91 85 79 72 63 56 53 54 56 61 71 82 90 94 97 100 100 99 99 98
40 41 44 49 56 64 74 87 98 103 105 107 106 105 105 106 106 106 104 100 95 90 85 79 72 68 67 69 71 72 73 76 84 93 101 107 109 108 104 104 104 103 103 103 104 106 108 108 105 103 103 104 102 101 101 100 100 100 101 100 100 100 100 100 100 101 100 100 99 95 87 79 70 64 61 58 59 62 65 69 72 75 78 79 80 80
39 39 41 43 47 51 56 64 76 89 98 102 102 102 104 106 106 105 105 105 104 101 96 89 81 74 69 65 63 63 66 69 73 77 84 95 106 110 107 105 105 104 102 103 105 106 107 109 109 107 107 109 108 106 105 105 105 105 103 102 102 102 103 102 101 100 100 101 101 100 99 97 93 87 80 74 69 67 65 64 63 62 62 63 63 64
41 41 42 42 43 45 48 50 55 64 78 90 100 103 103 102 102 103 103 103 102 103 103 99 93 84 75 68 62 59 57 60 65 68 72 78 87 96 101 104 103 101 101 104 105 105 106 107 106 103 102 102 103 104 105 106 106 107 108 108 106 104 104 105 103 100 100 102 101 100 101 101 100 99 96 91 86 83 81 78 76 73 71 70 68 65
39 41 42 44 44 44 46 47 48 50 56 67 83 96 100 99 98 99 100 98 97 99 102 102 101 94 83 73 65 60 57 55 56 58 63 68 73 78 86 92 95 96 99 100 99 100 100 100 99 99 98 98 97 97 100 101 101 103 106 108 107 104 104 105 103 101 102 104 103 101 102 102 101 101 101 100 98 97 95 94 94 92 90 87 83 78
29 34 37 39 42 44 45 46 47 48 49 52 60 73 84 90 94 97 97 94 93 95 96 98 99 97 91 85 77 69 64 60 57 55 56 59 63 68 73 79 84 89 93 95 97 99 100 99 100 103 104 102 99 97 96 96 97 97 99 100 101 101 103 104 104 105 106 106 106 106 106 105 106 106 106 107 106 105 105 106 104 102 101 98 95 93
26 28 30 33 36 40 43 45 46 47 49 49 50 54 60 68 77 86 92 94 94 95 95 96 96 94 92 91 89 84 79 73 68 65 62 60 61 63 65 68 72 77 82 87 92 97 99 100 102 104 104 103 101 97 95 94 92 91 90 90 90 92 94 96 98 100 101 103 105 107 107 106 106 107 107 109 109 107 107 106 104 103 103 102 101 103
31 31 30 31 33 36 39 43 46 47 47 49 50 51 51 52 56 63 71 79 85 92 98 101 101 100 98 96 95 95 94 91 87 81 74 68 65 64 63 64 66 67 70 74 77 81 84 87 90 91 91 93 94 94 93 93 91 89 89 89 89 90 91 91 91 92 93 94 97 98 99 99 100 101 101 103 104 103 103 103 102 103 104 104 104 104
Wind_Speed
65 64 62 63 64 64 61 58 56 54 52 52 51 51 52 52 52 55 56 56 54 51 52 53 51 50 52 55 57 56 56 56 58 59 56 52 50 50 52 54 56 57 58 57 57 59 60 61 61 61 62 62 62 62 63 64 64 64 64 64 63 63 62 62 61 61 61 60 60 59 58 57 56 55 54 54 54 53 52 50 49 48 47 47 46 46
64 62 62 65 65 63 60 56 53 51 50 51 51 50 50 51 52 53 54 55 52 48 51 53 49 49 51 53 53 53 52 53 58 59 54 51 49 49 53 53 54 55 56 56 57 58 58 59 59 59 59 59 60 61 61 62 63 63 63 62 61 61 60 60 59 59 59 58 58 57 57 56 55 54 54 53 53 52 51 51 50 49 48 46 45 43
61 60 63 66 64 61 58 55 52 51 51 51 51 50 49 50 51 51 52 54 51 47 50 51 48 48 49 49 50 50 51 53 57 56 51 50 48 51 54 53 52 53 54 55 55 55 55 56 55 55 55 55 56 57 58 59 59 60 60 59 58 58 58 58 57 57 56 56 56 56 55 55 54 54 53 52 51 51 51 50 49 48 47 45 42 41
58 60 64 65 61 59 57 54 53 52 51 51 51 49 49 50 50 51 53 53 49 46 48 48 45 46 46 46 49 50 50 52 54 51 48 48 48 52 54 51 50 50 50 52 52 52 52 52 51 51 50 51 51 52 53 54 55 56 56 56 55 55 56 55 55 54 54 54 54 54 54 54 53 52 51 51 50 50 49 49 48 47 45 42 41 40
56 60 62 60 58 57 56 54 53 52 51 50 50 48 49 50 49 51 52 50 47 46 46 45 44 44 45 46 48 48 47 49 50 48 46 47 49 51 51 49 49 49 49 50 50 50 50 49 48 47 47 48 48 49 50 51 52 53 53 53 53 53 53 53 52 52 52 52 52 52 52 52 50 49 49 49 48 48 47 47 46 44 43 43 42 41
56 59 59 57 57 56 55 54 52 51 50 49 48 48 49 49 48 51 51 47 45 45 44 43 42 43 44 45 44 43 45 47 47 46 46 46 47 48 49 50 50 49 49 49 49 49 49 47 46 45 45 46 47 48 49 49 50 50 50 50 50 51 51 50 50 50 50 50 50 50 51 49 48 47 47 46 45 44 43 42 42 42 42 43 43 42
56 57 56 55 55 53 52 52 50 49 47 47 48 47 47 47 47 50 48 43 42 43 42 41 41 41 42 41 39 39 42 44 44 43 43 44 45 46 48 49 49 50 50 49 49 48 47 46 44 43 44 45 46 47 48 48 49 48 48 48 49 49 49 48 48 48 48 48 48 48 48 46 45 46 45 44 43 41 39 39 38 39 39 40 41 40
54 54 53 53 52 50 50 50 49 46 45 46 47 45 44 45 46 47 44 40 39 40 39 40 40 39 38 37 37 38 40 42 43 42 42 43 44 46 47 47 48 50 50 48 48 46 45 44 43 43 43 44 44 45 46 47 47 46 46 47 48 48 47 46 46 47 47 46 46 46 46 43 40 40 39 39 39 38 37 37 37 38 38 37 36 35
51 49 50 50 47 47 48 48 46 44 44 46 44 42 42 42 43 44 41 37 37 38 37 38 38 37 36 36 36 37 39 42 42 42 41 42 43 44 45 46 47 48 47 45 44 43 42 43 43 43 42 42 43 43 44 44 45 45 45 46 47 46 45 44 45 45 45 45 44 44 43 41 39 37 36 37 38 38 38 37 37 36 34 33 31 30
46 45 46 44 43 46 48 46 43 43 45 44 41 40 40 40 41 40 37 35 35 36 36 37 37 36 36 35 36 37 40 41 42 41 41 41 41 42 43 44 44 44 42 41 41 41 41 42 42 42 41 41 41 41 41 43 43 44 45 46 45 44 43 42 43 44 43 43 43 42 42 43 43 42 40 40 40 39 37 35 33 31 30 30 30 28
43 43 42 40 43 46 46 43 42 43 43 40 38 38 38 38 39 37 35 33 33 34 36 37 36 36 36 35 36 39 40 41 42 41 41 41 41 41 41 40 40 39 38 38 39 39 40 41 42 42 41 40 39 39 40 42 43 44 44 45 44 41 40 41 40 41 43 44 42 40 39 39 39 38 38 38 38 38 36 32 30 30 30 30 30 28
40 40 39 40 43 44 43 42 41 42 40 37 37 37 36 37 36 35 34 32 31 34 36 36 36 36 36 36 37 39 40 41 41 41 41 40 40 39 37 35 34 32 33 35 37 38 40 41 41 41 41 40 39 39 40 42 43 43 43 43 41 37 37 39 37 38 42 43 41 39 37 36 35 35 35 34 33 33 32 31 31 31 30 30 30 29
36 36 37 40 41 42 42 41 40 39 38 36 35 35 35 35 34 33 33 31 31 34 35 35 36 36 36 36 37 39 39 39 39 38 39 38 37 35 32 28 22 21 26 31 33 35 38 39 40 40 41 40 39 38 40 42 43 42 41 41 39 36 37 39 39 40 44 43 41 40 40 40 41 40 37 34 31 29 30 30 31 30 30 29 29 29
33 35 36 38 39 40 40 40 39 38 36 35 33 33 33 32 31 32 33 32 33 35 34 34 35 35 36 36 36 37 37 37 36 36 36 36 34 31 28 24 18 19 28 34 34 33 33 36 38 40 41 40 38 38 40 41 40 39 39 38 38 37 38 39 40 42 44 44 43 43 43 44 42 40 38 34 31 30 32 33 33 33 32 31 30 30
33 35 36 37 38 38 39 39 38 36 34 32 31 30 31 30 31 31 32 33 34 34 33 33 33 33 34 35 35 35 35 35 34 34 35 34 32 30 29 28 29 32 38 40 39 36 32 33 36 37 38 37 36 37 38 38 38 37 36 36 36 36 38 39 40 42 43 43 43 44 44 44 43 41 39 37 35 34 35 37 37 36 35 33 31 30
33 34 36 37 37 37 39 38 36 34 33 30 29 29 30 30 31 30 30 32 33 33 32 31 31 32 34 35 34 34 34 33 33 34 35 34 32 31 31 33 34 37 40 40 40 39 37 38 38 36 36 36 35 35 35 36 36 35 35 34 32 33 38 40 41 42 42 41 40 40 40 40 40 40 40 40 39 37 37 38 39 38 36 35 33 33
33 34 36 36 36 37 38 37 35 32 31 29 28 29 30 29 29 29 29 31 31 32 31 31 31 33 33 33 33 32 32 31 31 34 35 34 33 32 33 37 40 40 41 40 40 40 40 39 37 36 35 35 34 33 34 35 35 34 31 28 28 33 40 41 40 41 41 39 38 36 35 34 34 34 35 38 39 40 40 40 39 37 36 35 33 32
32 34 35 34 34 35 36 36 33 31 29 29 29 30 29 28 28 28 29 29 30 31 31 31 32 33 33 32 31 31 30 29 30 33 34 34 34 33 34 38 42 42 41 39 38 37 34 31 30 30 30 31 31 32 33 34 35 33 27 25 28 35 40 40 38 37 35 33 33 32 31 31 30 31 33 35 38 40 40 39 38 36 34 33 32 32
34 35 35 33 33 34 35 35 32 30 29 29 29 29 29 28 27 28 28 28 29 30 30 30 32 32 32 32 31 31 30 30 31 32 32 32 32 32 33 36 39 40 39 37 34 29 24 21 21 24 26 28 29 30 31 33 34 32 30 32 36 38 38 38 36 32 28 27 26 27 28 29 30 32 34 34 36 37 37 37 36 35 35 36 36 36
36 37 36 34 34 34 34 34 32 30 29 29 29 29 28 28 27 28 28 29 29 30 30 30 30 31 32 32 32 32 32 32 32 31 31 31 31 32 33 34 34 34 36 34 27 19 15 15 18 25 29 28 27 27 28 29 31 32 33 36 40 41 40 38 36 32 30 29 27 27 29 31 32 33 36 37 38 39 40 39 39 39 39 39 38 36
37 38 38 36 34 34 34 33 32 30 30 28 28 29 29 28 27 28 29 30 31 30 31 30 30 31 33 34 34 34 33 33 33 32 32 32 32 33 35 34 32 32 35 32 25 19 18 18 21 28 32 29 27 26 26 27 28 30 33 36 39 41 40 38 35 33 33 34 33 31 31 33 33 33 35 37 38 40 43 44 43 43 43 41 39 36
37 39 39 37 35 34 33 32 32 31 29 28 28 29 29 28 28 28 29 31 32 32 32 32 33 34 34 35 35 34 34 34 34 34 34 33 32 32 33 35 34 33 34 30 26 25 25 25 26 30 32 32 31 30 29 29 28 28 30 33 36 37 37 36 36 35 35 37 38 37 36 36 36 36 36 35 35 38 41 42 42 43 43 42 41 40
39 39 40 38 35 34 33 33 32 31 30 29 28 29 29 28 28 28 29 30 32 33 33 34 35 36 36 36 37 36 35 36 36 36 34 34 36 33 31 35 37 36 35 32 29 29 26 26 30 34 35 36 35 33 32 31 29 28 28 29 32 35 37 38 37 36 37 38 40 40 40 39 39 39 39 39 38 38 38 39 39 40 41 41 41 42
40 40 40 38 35 33 33 34 33 32 31 29 29 29 29 29 29 29 29 30 31 32 34 35 36 37 38 38 38 38 37 37 36 36 35 37 41 38 32 36 39 39 37 34 34 33 27 27 35 37 38 39 38 35 32 30 29 26 24 25 30 35 38 41 41 39 38 39 41 42 42 42 41 40 41 42 42 42 42 41 39 39 40 40 40 41
40 40 40 38 36 33 32 33 33 33 32 31 30 29 30 30 30 30 30 30 30 31 34 35 37 38 39 39 39 39 38 37 37 37 37 39 44 42 34 32 36 39 39 36 38 39 33 34 40 41 41 41 40 38 34 31 28 24 23 27 33 36 38 40 42 42 42 41 42 43 44 45 44 43 42 43 43 45 46 45 43 42 42 42 41 40
41 40 40 39 36 33 32 33 34 35 34 33 31 30 31 31 31 30 30 30 30 31 33 35 37 40 40 40 41 41 39 38 38 38 40 42 45 44 36 30 31 36 40 41 43 45 41 42 45 45 43 42 41 42 38 34 31 31 33 36 38 39 39 38 39 42 43 43 43 43 44 45 45 45 45 43 42 43 45 46 45 45 46 46 46 46
42 41 40 39 37 34 33 33 35 37 36 34 32 31 31 32 32 31 30 30 31 32 33 36 38 41 41 41 42 42 40 40 40 40 42 44 47 47 41 35 32 35 42 47 50 51 49 48 47 47 46 44 43 43 42 39 38 40 42 41 40 42 42 40 39 40 42 44 44 44 43 43 44 46 48 47 44 41 43 46 47 47 49 50 51 51
42 41 40 39 38 35 34 34 35 37 36 35 33 32 32 33 33 32 30 30 31 32 33 36 39 41 42 42 43 43 42 42 41 41 42 44 48 50 46 39 37 39 43 49 54 55 55 54 53 50 49 47 46 45 44 44 43 44 45 45 44 45 44 42 40 40 41 43 45 47 46 45 44 46 50 52 51 47 46 48 48 48 47 47 48 47
42 42 41 39 38 37 36 35 36 37 36 35 34 33 33 34 34 33 32 31 31 32 33 36 39 41 42 42 43 44 44 43 42 42 44 46 50 53 49 42 41 43 44 48 54 59 60 60 58 55 52 50 50 49 48 48 48 48 47 48 48 48 46 46 44 42 41 42 44 47 48 48 47 47 49 53 55 56 56 55 53 50 48 47 46 46
42 42 41 40 40 39 38 37 36 36 37 36 35 34 34 35 36 35 34 33 32 33 35 37 39 41 42 43 44 44 45 45 44 45 46 48 52 55 51 44 43 47 47 47 51 58 62 64 62 59 57 54 53 52 51 52 51 51 51 51 52 51 49 48 47 46 45 45 46 47 48 49 48 47 47 49 52 57 60 61 60 58 56 56 55 53
41 41 40 41 41 41 40 39 38 37 38 37 37 36 35 35 36 36 36 35 34 34 35 37 39 41 42 43 44 46 46 46 46 46 47 50 52 54 51 44 41 46 50 50 52 55 60 63 64 63 61 59 57 55 54 53 52 51 52 54 56 55 53 50 49 49 49 48 48 49 50 50 49 46 45 46 49 53 56 58 60 59 58 57 56 55
42 40 41 43 43 44 43 42 41 40 39 39 39 39 38 37 36 36 37 37 36 36 36 37 39 41 42 43 44 45 46 47 47 47 48 50 51 53 53 45 39 42 48 50 52 55 57 59 62 63 64 63 61 59 57 55 54 53 53 55 57 58 58 56 53 53 53 52 50 49 50 51 52 50 48 46 46 49 51 52 53 53 52 51 50 49
46 44 45 46 47 47 46 45 44 43 41 40 39 40 40 40 38 37 37 37 38 37 37 37 40 42 43 43 44 44 45 46 48 49 49 51 51 53 54 49 41 41 47 50 51 52 54 56 58 61 63 64 64 63 61 58 56 55 56 56 57 58 59 60 60 58 57 56 55 52 51 52 53 54 53 50 48 48 50 51 50 50 50 50 50 50
51 48 48 49 50 50 48 47 46 45 44 43 41 40 40 40 39 38 37 37 37 38 38 39 40 41 42 43 44 44 45 45 47 49 50 52 52 54 56 53 46 41 44 49 52 53 52 54 56 59 62 64 65 65 64 62 60 58 57 57 57 58 59 60 62 63 62 61 60 59 57 55 55 55 55 55 53 53 53 54 54 54 55 55 56 56
54 52 52 52 53 52 50 49 49 49 48 47 44 42 41 41 41 40 40 38 38 38 39 39 40 40 42 44 45 45 46 46 47 49 51 52 53 54 56 57 53 47 45 48 53 54 54 55 57 58 60 62 64 65 66 65 64 63 61 60 59 58 58 59 61 63 63 63 62 62 62 60 59 58 57 57 58 58 59 60 61 61 62 62 62 62
56 55 55 55 55 54 52 51 52 52 52 50 48 46 44 43 43 43 43 41 40 40 40 40 40 41 42 44 46 47 47 47 48 49 51 53 54 55 56 59 59 54 50 49 52 54 56 58 59 60 61 62 63 65 66 66 66 65 64 63 61 60 58 58 59 60 61 62 62 62 63 63 63 63 62 62 62 62 63 64 65 66 67 68 68 68
57 57 57 58 58 56 55 54 54 54 53 53 52 51 48 47 45 45 45 45 44 44 43 42 42 42 42 44 47 48 48 48 49 51 51 52 53 55 57 60 61 58 53 50 49 52 54 58 61 62 62 63 64 65 66 66 66 65 63 62 61 60 59 58 58 59 60 61 62 63 63 64 65 66 66 66 66 66 66 66 67 67 68 69 69 70
58 58 59 60 60 59 58 57 57 56 55 55 55 54 52 51 49 47 46 46 46 46 46 46 46 45 44 45 47 49 49 48 50 53 54 53 53 55 58 61 63 61 57 52 50 50 52 56 61 64 64 64 65 66 67 67 67 67 66 64 62 61 60 59 59 59 60 61 62 63 65 66 66 67 67 67 68 68 68 69 69 69 69 69 70 70
61 61 61 61 62 62 62 61 60 59 57 56 56 55 54 53 52 51 49 49 48 48 48 49 50 50 50 51 51 51 51 51 51 53 56 57 56 56 58 61 63 62 59 56 53 52 52 55 59 62 64 67 67 67 69 70 70 70 69 67 66 64 63 63 62 62 62 62 62 63 65 66 67 68 69 69 70 70 71 71 72 72 72 72 73 73
64 64 63 63 64 65 64 63 62 61 59 59 58 57 56 55 55 54 52 53 53 52 51 52 52 53 54 55 54 54 54 53 51 52 55 56 55 55 58 61 63 62 59 57 55 53 54 56 57 56 59 64 66 67 70 72 72 72 72 71 70 68 67 67 67 66 65 65 64 64 65 65 66 67 69 71 72 73 74 74 74 75 75 75 75 75
66 65 64 64 64 64 64 64 63 62 61 62 61 60 59 58 57 56 55 56 56 56 55 55 55 55 55 54 53 54 55 54 54 54 55 54 53 55 57 60 62 62 60 58 56 55 55 56 56 54 54 56 58 60 64 66 67 68 69 70 70 70 70 70 70 69 69 68 67 67 68 67 68 69 71 73 74 75 75 75 76 76 76 76 76 76
67 66 65 64 64 64 64 64 64 62 62 63 63 62 61 60 60 59 60 59 59 58 58 57 55 55 55 52 50 51 53 55 56 57 56 54 54 55 57 59 62 63 63 63 63 62 62 61 60 59 58 57 57 58 60 61 61 62 64 66 68 68 69 70 71 71 71 71 71 71 72 72 73 73 74 75 77 77 77 77 77 77 77 77 77 77
64 65 66 65 65 65 65 64 64 63 63 63 63 64 63 62 62 63 63 62 62 62 62 61 58 57 56 54 52 50 51 52 56 59 59 57 56 56 56 57 61 63 65 66 67 68 70 70 69 68 66 65 64 64 63 63 63 64 64 65 66 67 68 70 72 73 74 74 74 74 74 74 74 74 74 75 76 78 79 79 79 79 80 80 80 81
61 63 65 66 66 66 66 66 65 65 64 63 63 64 65 65 65 66 66 65 65 65 65 65 64 62 61 60 59 57 55 54 55 58 60 60 59 58 57 58 60 62 63 65 66 69 72 74 75 75 74 73 72 71 70 70 70 70 70 70 70 70 71 72 73 75 77 78 79 79 78 77 75 73 72 72 73 75 77 79 80 81 82 83 84 84
59 60 62 64 66 68 68 68 67 66 66 65 64 65 67 68 67 67 68 67 67 68 68 68 67 66 65 64 63 62 61 61 60 60 61 61 62 62 62 61 61 61 62 62 63 65 67 69 72 74 75 76 76 77 77 76 76 76 76 76 76 75 75 76 76 77 77 78 79 80 80 80 79 78 77 75 75 76 77 78 80 81 83 84 85 86
56 56 58 61 64 66 68 69 69 69 68 68 67 67 69 70 70 70 70 71 70 70 71 71 70 69 68 67 65 64 63 64 65 65 64 64 65 65 66 66 65 65 65 64 65 65 67 68 69 70 72 73 75 76 77 78 78 78 77 77 77 77 77 77 77 78 79 79 80 80 81 81 82 83 83 82 82 82 82 83 84 84 85 86 87 88
53 53 55 58 61 63 66 68 69 69 70 70 70 71 72 73 73 73 73 74 73 73 74 74 73 73 72 70 68 66 64 64 65 67 68 68 68 68 68 69 69 69 69 70 70 70 71 72 72 73 74 74 75 75 76 77 78 78 78 78 78 78 79 79 79 79 80 81 82 82 83 84 85 86 87 88 88 88 89 89 89 90 90 90 91 91
50 52 54 56 58 61 63 65 67 68 70 71 72 74 75 75 75 75 76 76 76 76 76 76 77 77 76 74 71 68 66 65 66 66 68 69 70 70 70 71 71 71 72 72 73 74 74 74 75 76 77 78 78 78 78 79 79 80 81 81 82 82 82 82 82 82 83 84 84 85 86 87 88 90 90 91 92 92 93 93 93 94 94 95 95 95
47 50 52 53 56 58 61 63 65 67 69 71 72 75 77 77 77 77 78 77 77 77 77 78 79 79 78 77 75 73 71 69 67 66 67 68 69 70 72 72 73 74 74 75 75 76 76 77 78 79 80 81 81 80 79 80 80 81 81 82 82 82 82 83 83 84 85 86 87 87 88 89 90 91 92 93 94 95 95 96 96 97 97 98 98 98
42 45 48 50 53 55 57 60 63 65 67 69 71 74 76 78 78 79 79 79 78 78 78 79 79 80 79 79 79 78 76 75 73 71 69 69 69 70 72 73 74 75 76 77 78 78 79 80 81 82 82 82 82 82 82 82 82 82 82 83 83 83 84 85 85 86 86 87 88 88 89 89 90 91 92 93 94 95 95 96 96 97 97 97 97 97
38 41 44 47 49 52 54 57 60 63 65 67 69 72 74 76 77 78 80 80 80 79 80 80 81 81 81 80 80 80 80 79 78 77 75 73 72 71 71 72 74 75 76 77 78 80 81 82 83 83 83 83 83 83 83 84 84 85 85 85 86 86 87 87 88 88 88 88 89 89 90 91 91 92 93 93 94 95 95 96 96 96 97 97 98 98
Wind_Direction
265 265 263 260 260 260 261 261 261 262 263 263 262 261 261 261 261 260 260 258 256 255 255 253 249 247 246 247 247 247 248 248 248 246 245 243 243 243 244 245 247 247 248 248 247 247 247 248 248 248 248 249 250 250 251 252 253 254 256 257 258 260 261 263 264 265 266 268 269 270 271 271 271 271 271 271 271 271 271 273 276 279 282 284 285 286
264 262 259 257 258 260 260 261 262 262 262 261 260 259 259 260 259 258 258 258 255 253 253 252 249 247 246 247 248 249 248 248 247 247 245 241 239 239 241 241 243 245 247 247 247 247 248 249 249 250 250 250 251 251 252 253 253 254 255 257 258 259 261 262 264 265 266 267 268 269 269 269 269 269 269 270 270 270 270 273 276 280 283 285 285 285
261 258 255 256 258 259 260 261 261 261 260 260 260 259 259 259 258 257 256 256 254 252 251 251 249 247 246 247 247 247 245 244 246 247 246 242 237 236 239 239 240 243 246 247 248 249 249 250 251 252 252 252 253 253 253 254 254 255 256 257 258 259 261 262 263 264 265 266 266 267 267 268 268 268 269 269 269 270 270 273 276 280 283 284 283 283
258 256 255 256 258 259 260 260 260 260 261 261 260 260 258 257 257 256 255 254 254 251 250 250 249 247 246 244 244 244 243 243 245 247 245 242 237 236 238 238 239 242 244 246 247 248 249 250 251 252 252 253 253 253 254 254 255 256 256 257 258 259 260 261 262 262 263 264 265 266 266 267 267 268 269 269 269 269 270 272 275 278 280 281 281 283
255 254 255 257 258 258 259 259 260 261 261 261 260 258 256 255 255 255 254 254 253 251 250 249 247 246 245 243 243 243 243 243 244 244 242 239 237 237 238 237 237 238 240 242 244 246 247 247 248 249 250 251 251 251 252 253 253 255 256 257 258 258 259 260 260 261 262 263 264 265 265 266 267 268 269 269 270 270 271 272 274 276 277 278 280 282
253 254 255 256 257 257 259 259 260 261 261 261 259 256 254 254 253 253 254 253 252 252 251 249 247 245 244 244 243 243 243 243 242 241 239 238 237 237 237 236 236 236 237 240 241 244 245 246 247 247 248 248 249 249 250 251 252 253 255 256 257 257 258 258 259 260 262 262 264 265 266 267 268 268 268 269 271 272 273 274 274 275 276 278 280 281
253 253 254 255 256 258 259 260 261 260 260 259 257 254 253 253 252 253 254 253 253 252 251 249 247 244 244 244 242 240 241 241 241 239 238 237 236 236 236 237 237 237 237 238 240 242 244 245 246 246 246 246 247 248 249 250 251 253 254 255 256 256 257 258 259 261 262 263 265 266 266 267 268 267 268 269 271 272 273 274 276 277 278 279 280 281
253 254 255 256 257 259 260 260 259 259 258 256 254 253 253 252 252 253 255 253 252 251 250 249 247 245 243 241 238 237 237 238 239 237 236 235 235 235 235 236 238 239 240 240 241 243 244 245 246 245 245 245 246 248 249 251 252 253 253 254 255 256 257 259 260 261 262 263 265 266 267 267 268 268 269 269 269 270 272 274 277 278 280 280 280 280
254 254 255 256 258 258 257 256 256 256 255 253 252 252 251 251 252 254 254 252 250 249 248 247 246 244 241 238 235 233 234 235 236 236 235 234 235 236 236 236 238 241 243 244 245 245 246 246 246 246 246 246 247 248 249 251 252 253 253 253 254 256 257 258 260 261 262 263 264 265 265 264 265 267 269 270 270 269 271 273 277 278 278 277 276 277
253 252 253 254 255 254 253 254 254 254 253 252 252 251 251 250 251 252 252 250 248 247 246 245 243 242 239 236 233 231 232 233 234 235 234 233 234 235 236 237 238 241 244 246 247 247 247 247 248 248 247 247 247 248 249 250 251 251 252 253 254 255 257 258 259 260 261 262 262 263 264 263 263 265 267 269 269 269 270 273 275 275 273 272 274 278
250 249 250 251 250 251 252 252 252 252 252 251 251 250 250 250 250 250 250 248 247 246 244 242 241 239 237 234 231 230 230 231 232 232 232 232 232 233 235 238 240 243 246 247 247 247 247 247 248 248 248 248 248 248 248 249 249 250 251 252 254 256 258 259 260 263 264 262 261 261 261 261 262 263 264 265 265 266 269 272 273 271 270 270 273 278
247 247 248 247 248 250 251 251 250 250 251 250 248 248 248 249 249 249 247 244 244 244 242 241 239 237 235 232 230 230 229 229 230 232 232 232 232 232 234 237 242 248 252 254 254 251 248 247 248 249 248 248 247 247 248 248 249 249 250 252 254 254 256 258 258 260 261 261 260 257 253 255 260 264 264 263 265 267 270 270 269 267 268 270 271 273
248 247 246 247 248 249 250 250 249 249 249 248 247 247 248 248 248 248 246 242 240 241 240 238 237 235 234 232 230 230 229 229 230 232 233 234 233 232 233 236 246 259 264 262 256 249 247 247 247 248 248 246 245 245 247 248 249 251 252 254 255 253 252 254 253 252 255 257 257 254 252 255 261 266 267 267 269 269 268 267 265 265 267 270 270 270
245 246 246 247 248 249 250 250 248 248 248 247 247 248 249 249 248 248 246 241 237 237 236 235 234 234 233 232 231 232 231 230 229 229 231 232 231 229 227 220 211 225 241 243 239 238 245 249 248 247 248 247 246 245 247 250 252 254 255 257 258 257 256 255 255 253 254 256 254 252 254 257 261 265 266 267 266 265 265 265 264 266 268 270 271 270
241 242 244 245 247 248 249 249 248 248 248 247 247 248 249 247 246 246 245 241 237 236 234 232 232 232 232 232 231 231 231 229 226 225 226 226 225 222 218 206 196 207 222 229 231 236 245 250 248 248 250 249 249 249 250 253 255 256 257 259 261 262 262 259 257 255 255 255 254 253 255 258 261 263 263 264 262 260 261 263 264 267 270 271 271 270
239 241 242 244 245 246 248 248 247 246 247 246 246 247 246 244 243 242 242 241 239 236 233 231 230 229 230 231 231 230 230 227 223 222 222 220 218 216 212 205 201 208 217 224 230 237 242 246 250 254 256 255 253 252 253 254 255 256 257 260 265 267 265 261 258 256 254 253 253 253 254 257 259 262 262 262 260 258 259 262 265 268 269 270 271 271
239 241 243 245 246 247 248 248 246 244 245 245 244 244 243 242 242 241 240 239 238 236 232 228 226 227 228 229 230 229 228 226 222 221 220 216 212 210 208 204 204 210 216 221 228 236 241 244 252 261 263 260 258 256 255 254 255 255 257 263 266 262 259 258 257 257 256 255 256 256 256 257 259 260 260 259 258 257 258 262 265 267 268 269 270 270
238 240 242 245 247 249 250 249 245 242 243 242 241 241 240 240 239 239 239 237 236 235 231 226 224 224 225 226 226 226 225 223 221 221 220 216 212 209 207 206 209 214 218 223 229 235 239 244 256 267 265 259 257 255 254 254 253 251 249 249 248 248 250 253 255 257 259 259 260 260 259 258 258 258 258 257 257 256 257 260 262 263 264 265 266 267
239 239 239 241 245 248 250 248 243 239 239 239 240 240 239 238 235 234 234 234 233 232 230 227 224 223 224 223 222 220 218 217 218 219 219 216 212 210 208 208 211 217 222 226 229 229 230 241 259 266 260 254 254 254 253 253 252 248 239 231 231 236 243 248 251 252 254 254 255 254 253 252 253 255 255 254 254 254 256 259 261 261 264 267 268 270
240 240 238 237 240 244 247 246 240 236 236 237 238 238 236 236 234 232 229 228 229 227 225 225 224 223 222 222 220 217 215 213 213 213 215 212 208 205 204 205 211 219 224 222 217 209 211 234 257 262 257 253 255 258 257 254 253 249 243 236 233 234 238 245 249 248 245 246 248 247 245 246 249 251 251 252 253 256 259 261 263 265 269 272 274 275
241 241 239 237 238 241 244 245 240 236 235 235 236 237 235 233 232 231 228 226 224 222 220 220 220 221 220 220 220 217 214 212 210 209 209 207 204 201 198 198 204 217 223 215 201 190 199 222 242 249 251 251 252 256 258 256 254 251 248 245 242 240 241 245 249 247 242 241 244 244 241 242 246 248 250 253 255 258 261 264 266 268 270 272 274 274
239 241 239 237 237 240 243 243 240 237 236 235 235 236 236 232 230 230 229 226 224 220 217 216 216 217 218 219 219 217 214 212 210 208 205 203 201 198 197 198 202 213 219 212 201 196 198 211 226 234 239 243 244 247 251 253 255 255 252 248 246 244 243 244 244 244 241 238 240 243 243 242 243 247 250 251 253 257 260 263 265 267 268 270 272 273
237 238 238 236 235 238 241 241 239 238 236 235 235 237 237 234 231 229 227 227 225 221 217 215 215 216 215 216 217 215 213 211 210 207 203 199 195 193 201 206 207 213 216 211 205 200 197 210 224 229 233 237 239 241 245 248 252 256 256 252 248 244 240 241 243 244 244 242 240 242 244 244 245 248 250 250 251 253 255 257 259 262 265 267 270 272
236 236 237 235 234 236 239 240 239 238 237 235 234 236 237 235 232 230 227 225 225 222 219 216 216 216 215 215 216 215 212 210 210 207 202 198 193 192 201 209 211 215 216 213 208 199 198 217 228 230 233 235 238 242 244 245 248 256 261 256 252 248 243 240 241 244 248 249 247 245 244 246 248 249 249 249 251 252 253 254 254 257 261 264 266 268
233 233 235 235 234 235 238 240 240 239 237 235 234 234 235 234 233 231 228 226 223 222 220 218 217 218 217 215 216 216 213 210 209 206 202 199 196 194 199 208 214 218 217 215 210 201 203 221 228 231 233 233 236 239 240 241 241 245 246 242 241 243 243 241 240 242 247 250 252 250 248 247 249 249 249 250 251 253 254 255 254 255 258 260 261 262
228 229 231 232 232 233 237 238 239 239 236 233 232 233 233 233 233 231 230 227 224 221 220 219 218 219 219 216 215 216 214 210 208 206 202 200 197 195 197 204 213 220 219 215 211 207 210 220 226 229 232 232 233 233 234 235 232 227 227 229 232 236 240 242 242 242 244 247 251 252 251 250 250 249 249 250 251 253 254 255 255 257 259 259 260 262
225 227 228 229 230 231 234 236 237 238 237 234 231 231 233 233 232 231 229 227 225 222 220 219 219 220 220 218 216 217 215 211 208 206 203 201 198 195 195 198 206 215 219 217 215 214 218 223 226 229 230 230 232 231 229 230 228 224 224 226 230 234 236 238 240 242 245 247 247 248 249 250 251 250 249 248 249 253 256 256 256 258 261 262 263 265
223 226 227 228 230 230 231 234 235 236 237 235 232 231 232 233 232 230 228 226 224 221 220 220 220 221 221 219 217 216 216 213 209 206 204 202 199 196 195 198 205 212 217 219 220 221 224 227 229 230 230 231 231 230 228 228 227 225 225 226 229 233 234 233 233 237 244 247 247 246 247 248 250 251 251 249 248 251 255 257 257 258 262 265 267 268
221 224 226 228 231 231 229 229 232 233 234 234 233 230 229 231 231 229 226 224 222 220 219 221 221 222 222 221 219 217 216 214 210 207 205 203 200 198 198 203 212 216 217 219 222 224 226 228 229 230 231 231 232 232 231 231 230 228 227 228 230 232 234 234 231 232 239 245 248 248 248 249 250 252 253 252 250 250 253 255 256 257 260 264 267 269
221 222 224 227 230 230 226 225 228 231 232 232 232 231 230 229 230 229 227 224 222 221 220 220 221 222 223 222 221 219 218 216 212 208 206 204 203 202 203 209 217 221 221 222 224 225 226 227 228 230 231 232 233 234 236 236 235 233 232 231 230 231 233 234 233 234 238 243 246 247 249 250 252 254 257 258 257 255 256 258 259 259 259 262 265 268
222 221 223 225 227 227 224 222 224 228 230 230 231 231 230 229 229 230 228 226 223 222 221 221 221 222 223 222 222 220 219 217 215 210 208 206 206 206 207 211 220 224 224 226 228 229 229 228 229 230 231 233 234 236 238 239 237 235 235 235 233 232 231 232 233 235 238 242 245 247 248 249 251 254 258 261 263 263 264 265 267 268 267 268 270 271
223 220 222 224 224 223 222 221 222 224 226 228 229 229 228 227 227 229 230 227 225 222 222 222 222 222 223 223 223 222 221 220 217 214 211 209 208 208 207 208 219 226 227 229 232 233 234 233 232 232 233 234 236 236 238 239 238 236 236 237 237 236 234 233 232 234 237 241 244 247 248 249 249 251 253 257 261 264 267 269 271 273 273 272 272 272
222 220 221 223 222 221 220 220 221 221 223 225 227 229 229 227 225 226 229 229 227 225 223 223 223 224 224 223 223 223 223 222 220 217 215 212 210 209 207 207 215 226 229 231 233 235 237 239 237 237 236 236 237 238 238 239 239 237 237 238 240 240 239 238 236 236 238 240 241 243 247 249 249 250 252 253 254 256 259 263 264 265 267 267 267 267
221 219 220 223 223 221 220 220 221 221 221 221 222 226 229 229 225 223 224 227 228 228 225 224 224 225 226 225 225 224 223 223 223 220 218 215 212 210 208 208 214 224 231 233 234 234 237 240 240 240 240 240 240 240 239 239 240 240 240 240 241 242 243 242 241 241 242 243 243 244 246 248 249 251 252 253 253 252 253 255 257 258 260 262 263 265
220 219 219 222 224 222 220 221 222 221 221 219 219 222 225 227 227 224 222 222 226 229 228 227 226 225 226 226 226 226 225 224 224 223 221 219 215 212 211 212 216 223 230 234 236 236 237 239 240 241 242 242 242 242 242 242 242 243 243 243 243 245 246 246 245 244 245 246 247 248 249 249 250 250 251 252 253 254 254 255 256 257 258 260 262 265
222 219 219 222 224 222 221 221 223 223 222 220 219 220 222 224 226 226 224 222 223 226 228 229 228 227 226 225 224 225 225 225 225 225 223 222 219 215 214 215 217 222 228 233 237 239 239 240 241 241 242 243 244 244 244 245 245 245 246 245 244 247 249 248 248 248 248 249 250 250 251 252 252 252 252 252 252 253 254 255 257 258 260 261 262 264
226 222 220 222 224 223 222 222 223 225 225 223 222 220 220 221 223 226 228 227 224 224 226 227 228 228 228 227 226 224 224 225 226 226 225 224 222 218 217 218 219 221 225 231 236 240 242 243 242 241 242 243 245 246 246 246 246 246 246 245 245 247 248 248 249 250 251 251 251 251 251 251 252 253 254 254 254 254 255 256 258 260 261 263 264 266
230 228 224 223 224 224 223 222 223 225 225 226 226 225 223 222 221 223 228 229 227 227 227 227 227 227 229 230 229 227 225 225 226 227 226 225 223 220 219 220 221 223 225 229 234 238 241 243 244 243 242 243 245 247 247 247 248 248 247 247 248 249 249 248 249 250 251 252 252 252 252 252 252 253 254 256 256 257 257 257 258 260 262 264 266 267
230 231 228 226 225 225 225 223 223 224 225 226 227 228 228 227 224 223 225 227 229 229 230 229 227 226 228 229 229 229 228 227 227 228 227 226 224 222 220 221 223 225 227 230 233 235 238 242 244 244 243 243 244 247 248 248 249 249 249 250 251 252 251 250 250 251 251 252 253 254 254 254 254 255 256 257 257 258 258 259 260 261 262 264 266 268
227 229 229 228 227 228 228 227 226 225 225 226 227 228 229 230 230 228 226 227 228 229 231 231 229 228 229 229 229 229 230 230 229 230 230 228 226 225 224 224 224 226 229 231 233 235 238 241 243 244 246 246 245 247 250 250 251 252 253 253 253 254 254 253 253 253 254 254 254 255 255 255 255 256 257 258 258 259 259 260 261 262 264 265 266 268
227 228 228 229 230 230 231 232 231 229 227 227 229 229 229 230 232 231 230 230 231 230 231 232 232 232 233 233 233 232 232 231 231 232 233 231 228 227 227 227 226 227 228 229 230 233 237 241 242 241 244 246 246 248 251 254 255 256 256 257 256 256 257 257 257 257 256 256 256 257 257 257 258 259 260 260 260 260 260 261 262 263 264 265 267 268
228 228 228 229 230 231 232 233 235 234 231 230 231 232 232 232 232 232 232 232 233 234 234 235 235 236 237 237 236 235 234 233 232 233 235 234 231 229 229 228 228 229 229 230 231 233 235 238 239 239 241 243 245 247 251 254 256 258 259 261 262 262 262 262 262 262 261 260 259 258 258 258 259 261 262 261 261 260 260 261 262 263 264 265 266 267
229 229 229 229 229 230 231 233 235 236 236 234 234 235 236 235 235 235 235 234 234 235 236 237 236 236 237 239 239 237 236 235 234 233 234 235 235 233 232 231 230 230 232 234 235 235 236 237 239 240 242 244 246 247 249 251 254 256 258 260 263 264 265 266 267 268 268 267 266 265 263 262 261 261 261 261 260 260 260 261 262 263 263 264 265 266
230 229 229 230 230 230 230 231 232 234 236 236 236 237 238 237 237 238 239 238 237 237 238 238 237 236 236 238 239 238 237 236 236 235 235 236 236 235 235 235 234 233 234 236 238 239 240 240 241 242 243 245 246 248 249 251 252 254 255 256 258 260 262 264 266 267 269 270 270 271 270 269 268 266 265 263 262 261 261 261 261 262 263 264 265 266
231 231 230 229 230 231 231 231 231 231 233 235 236 237 239 239 239 239 241 241 241 241 241 241 241 240 239 238 238 237 236 236 237 236 237 237 237 237 236 236 236 236 236 238 239 241 242 243 244 245 246 247 248 249 250 252 253 254 255 256 257 258 260 261 262 264 265 266 267 268 269 270 271 271 270 269 268 267 266 265 265 265 265 266 266 267
233 233 232 232 232 232 232 232 232 232 232 232 233 235 237 239 239 239 240 241 242 243 244 244 245 245 244 243 241 239 237 236 236 236 236 236 237 237 237 237 237 237 239 240 241 242 244 245 247 248 248 249 250 251 251 252 254 255 256 256 257 258 259 260 261 262 262 263 264 264 265 266 267 269 270 270 270 270 270 270 270 270 270 270 270 270
234 234 233 234 234 234 234 234 234 233 233 233 233 233 235 237 238 238 239 240 240 241 243 245 246 247 247 246 245 243 240 238 237 236 236 236 236 236 237 237 238 239 240 242 243 244 246 247 249 250 250 251 251 252 252 252 253 254 255 255 256 257 258 259 260 260 260 261 262 262 263 263 264 265 266 268 269 269 270 271 271 272 272 272 272 272
233 233 232 233 234 235 236 236 236 235 235 234 234 234 235 236 237 238 239 240 240 241 242 244 246 248 249 249 249 248 246 243 241 239 238 238 238 238 238 239 239 240 241 242 244 245 246 248 249 251 252 253 254 254 254 254 254 254 255 256 256 257 258 259 259 260 260 260 261 261 262 263 263 264 265 266 267 268 268 269 270 271 271 272 273 273
234 234 234 233 233 233 234 236 237 237 237 236 236 236 237 237 238 239 240 241 242 242 243 244 245 247 250 251 253 253 252 250 248 245 243 242 241 240 240 241 241 241 242 243 244 245 247 248 249 251 252 254 255 255 255 256 256 256 256 257 257 257 258 259 259 260 260 261 261 262 263 263 264 264 265 266 266 267 268 268 269 270 270 271 272 273
238 238 238 237 236 235 235 235 236 237 238 238 238 238 239 239 239 240 241 242 242 243 244 245 246 247 249 250 252 254 255 255 255 253 251 248 246 244 243 243 242 243 243 244 245 246 247 248 249 251 252 253 254 255 256 256 257 257 258 258 258 259 259 260 261 261 261 262 262 262 263 263 263 264 264 265 266 267 267 268 268 269 269 269 270 270
239 239 240 240 240 239 237 237 237 237 238 238 239 240 241 241 241 242 242 243 244 244 245 246 247 248 249 250 251 252 254 255 257 257 256 255 253 251 249 247 246 245 245 246 246 247 247 249 250 251 252 253 254 255 256 257 258 259 259 260 260 261 261 262 262 263 263 263 263 263 263 263 263 263 264 264 265 265 266 266 266 266 266 267 267 268